Regional Weather Roundup
Issued by NWS Northern Indiana

Home | Current Version | Previous Version | Graphics & Text | Print | Product List | Glossary On
Versions: 1 2 3 4 5 6 7 8 9 10 11 12 13 14 15 16 17 18 19 20 21 22 23 24 25 26 27 28 29 30 31 32 33 34 35 36 37 38 39 40 41 42 43 44 45 46 47 48 49 50
000
ASUS43 KIWX 210600
RWRIWX

KIWX WEATHER ROUNDUP
NATIONAL WEATHER SERVICE NORTHERN INDIANA
200 AM EDT THU SEP 21 2017

NOTE: "FAIR" INDICATES FEW OR NO CLOUDS BELOW 12,000 FEET WITH NO
SIGNIFICANT WEATHER AND/OR OBSTRUCTIONS TO VISIBILITY.

* THESE STATIONS ARE NOT UNDER NWS QUALITY CONTROL. THEY ALSO MAY NOT
  REPORT WEATHER SUCH AS PRECIPITATION OR FOG.

INZ001>027-210700-
NORTHERN INDIANA

CITY           SKY/WX    TMP DP  RH WIND       PRES   REMARKS
MICHIGAN CITY* CLOUDY    75  66  73 S7        29.99R
SOUTH BEND     PTCLDY    71  69  93 S6        30.00S
6HR MIN TEMP:  71; 6HR MAX TEMP:  81;

GOSHEN         CLOUDY    72  66  81 S5        30.01R
6HR MIN TEMP:  72; 6HR MAX TEMP:  80;

FORT WAYNE     PTCLDY    68  66  93 S3        30.03R
6HR MIN TEMP:  68; 6HR MAX TEMP:  76;

PERU/GRISSOM   CLEAR     71  71 100 S6        30.01R
6HR MIN TEMP:  71; 6HR MAX TEMP:  78;


$$
INZ028>050-210700-
CENTRAL INDIANA

CITY           SKY/WX    TMP DP  RH WIND       PRES   REMARKS
LAFAYETTE      CLEAR     72  69  90 CALM      29.99S
6HR MIN TEMP:  71; 6HR MAX TEMP:  82;

KOKOMO*        CLEAR     69  67  93 S5        30.03R
6HR MIN TEMP:  69; 6HR MAX TEMP:  76;

MUNCIE*        CLEAR     74  69  85 S6        30.03S
6HR MIN TEMP:  74; 6HR MAX TEMP:  82;

INDIANAPOLIS   CLEAR     73  70  90 S7        30.02R
6HR MIN TEMP:  73; 6HR MAX TEMP:  83;


$$
MIZ043>046-050>051-056>058-064>065-071>073-077>080-210700-
SOUTHWEST LOWER MICHIGAN

CITY           SKY/WX    TMP DP  RH WIND       PRES   REMARKS
BATTLE CREEK   CLOUDY    73  68  84 S5        30.03R
6HR MIN TEMP:  72; 6HR MAX TEMP:  80;

BENTON HARBOR  CLOUDY    75  67  76 S5        29.97S
6HR MIN TEMP:  75; 6HR MAX TEMP:  80;

COLDWATER*     CLOUDY    71  69  93 CALM      30.03R
6HR MIN TEMP:  71; 6HR MAX TEMP:  76;

HILLSDALE*     CLOUDY    68  64  88 SE5       30.05S
HOLLAND        CLOUDY    73  67  81 S5        29.98S
6HR MIN TEMP:  73; 6HR MAX TEMP:  80;

GRAND RAPIDS   CLOUDY    72  69  90 SE6       29.99S
6HR MIN TEMP:  72; 6HR MAX TEMP:  79;

KALAMAZOO      CLOUDY    72  66  81 S3        30.01S
6HR MIN TEMP:  72; 6HR MAX TEMP:  81;

STURGIS*       CLOUDY    72  68  86 CALM      30.02R
6HR MIN TEMP:  71; 6HR MAX TEMP:  78;

THREE RIVERS*  FAIR      73  68  84 S3        30.02S
6HR MIN TEMP:  72; 6HR MAX TEMP:  81;


$$
OHZ001>008-015>018-024>025-210700-
NORTHWEST OHIO

CITY           SKY/WX    TMP DP  RH WIND       PRES   REMARKS
DEFIANCE       CLEAR     67  65  93 CALM      30.04R
6HR MIN TEMP:  67; 6HR MAX TEMP:  75;

FINDLAY        CLEAR     68  63  84 SE5       30.05R
6HR MIN TEMP:  68; 6HR MAX TEMP:  77;

TOLEDO EXPRESS CLEAR     65  65 100 CALM      30.04R FOG
6HR MIN TEMP:  65; 6HR MAX TEMP:  73;

TOLEDO METCALF CLEAR     67  65  93 E6        30.05R FOG
6HR MIN TEMP:  67; 6HR MAX TEMP:  74;

LIMA           CLEAR     66  65  96 S3        30.06R
6HR MIN TEMP:  65; 6HR MAX TEMP:  75;


$$
AND FOR LAKE MICHIGAN COASTAL AND OPEN LAKE BUOY OBSERVATIONS

STATION/POSITION TEMP    WIND        PRES    VSBY  WAVE
                 AIR SEA DIR/SP/G                  HT/PER
                 (F)     (DEG/KT/KT) (MB)    (MI)  (FT/S)
CALUMET HARBOR    78     190/  5/  8 1013.5F
MICHIGAN CITY     78     160/ 11/ 13   N/A
BURNS HARBOR      77     180/  9/ 13 1014.9R
SAINT JOSEPH      77     140/  3/  6 1015.2
SOUTH LAKE BUOY   72 69  160/ 10/ 12 1013.7          1/ 3
4 MI NW BRIDGMAN  74 69  190/  8/ 10 1014.5S         1
MICHIGAN CITY     73 70  170/  6/  8   N/A           0

$$
&&




USA.gov is the U.S. government's official web portal to all federal, state and local government web resources and services.